VTS35 PASV-PATL

Flight info

Callsign VTS35
Flight time 1h 4m
Altitude 6000
Route SQA T380 AMEDE T379 UTICE T222 JOANY
Aircraft DC6/L-SDE1FGHIJ1RWXY/S

Departure

Time 2026-04-28 09:24
Airport Sparrevohn LRRS Airport (PASV)

Arrival

Time 2026-04-28 10:28
Airport Tatalina LRRS Airport (PATL)
Time Latitude Longitude Altitude Speed Heading
2026-04-28 08:55 61.10353 -155.57506 1583 ft 0 kts
2026-04-28 09:11 61.10347 -155.57506 1582 ft 2 kts
2026-04-28 09:11 61.10330 -155.57508 1579 ft 5 kts
2026-04-28 09:12 61.10321 -155.57511 1578 ft 1 kts 24°
2026-04-28 09:12 61.10313 -155.57526 1576 ft 1 kts 60°
2026-04-28 09:12 61.10312 -155.57530 1576 ft 0 kts 68°
2026-04-28 09:13 61.10312 -155.57531 1576 ft 0 kts 68°
2026-04-28 09:19 61.10312 -155.57530 1576 ft 0 kts 68°
2026-04-28 09:19 61.10313 -155.57526 1576 ft 0 kts 72°
2026-04-28 09:20 61.10312 -155.57511 1576 ft 2 kts 114°
2026-04-28 09:20 61.10300 -155.57486 1575 ft 0 kts 163°
2026-04-28 09:22 61.10188 -155.57469 1557 ft 46 kts 181°
2026-04-28 09:22 61.09648 -155.57469 1463 ft 106 kts 179°
2026-04-28 09:22 61.08774 -155.57471 1435 ft 134 kts 181°
2026-04-28 09:22 61.07834 -155.57507 1676 ft 135 kts 181°
2026-04-28 09:23 61.06875 -155.57603 1894 ft 142 kts 184°
2026-04-28 09:23 61.05862 -155.57908 2053 ft 154 kts 197°
2026-04-28 09:23 61.04873 -155.58954 2141 ft 169 kts 216°
2026-04-28 09:23 61.04016 -155.60824 2146 ft 183 kts 238°
2026-04-28 09:24 61.03597 -155.63311 2311 ft 187 kts 263°
2026-04-28 09:24 61.03748 -155.65930 2534 ft 186 kts 285°
2026-04-28 09:24 61.04169 -155.68527 2600 ft 196 kts 290°
2026-04-28 09:24 61.04687 -155.71206 2621 ft 205 kts 293°
2026-04-28 09:25 61.05282 -155.73862 2782 ft 205 kts 296°
2026-04-28 09:25 61.05931 -155.76484 3066 ft 201 kts 297°
2026-04-28 09:25 61.06605 -155.79026 3189 ft 204 kts 302°
2026-04-28 09:25 61.07448 -155.81410 3336 ft 205 kts 309°
2026-04-28 09:26 61.08398 -155.83558 3631 ft 200 kts 314°
2026-04-28 09:26 61.09439 -155.85479 3752 ft 204 kts 323°
2026-04-28 09:26 61.10694 -155.86984 3799 ft 209 kts 331°
2026-04-28 09:26 61.11954 -155.88356 4131 ft 201 kts 331°
2026-04-28 09:27 61.14397 -155.91496 4258 ft 213 kts 326°
2026-04-28 09:27 61.15616 -155.93226 4388 ft 213 kts 322°
2026-04-28 09:27 61.16695 -155.95337 4494 ft 214 kts 310°
2026-04-28 09:28 61.17480 -155.97941 4633 ft 214 kts 294°
2026-04-28 09:28 61.18046 -156.00786 4795 ft 212 kts 291°
2026-04-28 09:28 61.18625 -156.03597 4953 ft 212 kts 292°
2026-04-28 09:28 61.19230 -156.06388 5113 ft 212 kts 293°
2026-04-28 09:29 61.19839 -156.09183 5269 ft 212 kts 293°
2026-04-28 09:29 61.20441 -156.11959 5405 ft 210 kts 292°
2026-04-28 09:29 61.21035 -156.14739 5548 ft 210 kts 292°
2026-04-28 09:29 61.21629 -156.17509 5678 ft 210 kts 292°
2026-04-28 09:30 61.22223 -156.20272 5832 ft 210 kts 292°
2026-04-28 09:30 61.22819 -156.23034 5969 ft 209 kts 293°
2026-04-28 09:30 61.23370 -156.25832 6001 ft 212 kts 288°
2026-04-28 09:30 61.23897 -156.28723 6012 ft 216 kts 291°
2026-04-28 09:31 61.24465 -156.31568 6009 ft 216 kts 291°
2026-04-28 09:31 61.25024 -156.34507 6005 ft 216 kts 290°
2026-04-28 09:31 61.25567 -156.37423 6003 ft 216 kts 290°
2026-04-28 09:31 61.26110 -156.40317 5998 ft 214 kts 290°
2026-04-28 09:32 61.26648 -156.43174 5993 ft 211 kts 290°
2026-04-28 09:32 61.27176 -156.45985 5996 ft 208 kts 290°
2026-04-28 09:32 61.27699 -156.48789 5999 ft 206 kts 290°
2026-04-28 09:32 61.28214 -156.51550 5999 ft 205 kts 290°
2026-04-28 09:33 61.28724 -156.54266 6002 ft 203 kts 290°
2026-04-28 09:33 61.29234 -156.56998 6007 ft 201 kts 289°
2026-04-28 09:33 61.29737 -156.59697 6007 ft 199 kts 290°
2026-04-28 09:33 61.30232 -156.62370 6014 ft 197 kts 289°
2026-04-28 09:34 61.30728 -156.65039 6016 ft 198 kts 290°
2026-04-28 09:34 61.31221 -156.67704 6012 ft 197 kts 290°
2026-04-28 09:34 61.31713 -156.70353 6016 ft 195 kts 289°
2026-04-28 09:34 61.32202 -156.73008 6013 ft 193 kts 289°
2026-04-28 09:35 61.32684 -156.75619 6018 ft 193 kts 289°
2026-04-28 09:35 61.33165 -156.78222 6018 ft 192 kts 289°
2026-04-28 09:35 61.33635 -156.80774 6019 ft 191 kts 289°
2026-04-28 09:35 61.34112 -156.83383 6019 ft 190 kts 289°
2026-04-28 09:36 61.34587 -156.85958 6021 ft 190 kts 289°
2026-04-28 09:36 61.35056 -156.88525 6019 ft 190 kts 289°
2026-04-28 09:36 61.35530 -156.91090 6017 ft 190 kts 289°
2026-04-28 09:36 61.35998 -156.93663 6017 ft 190 kts 289°
2026-04-28 09:37 61.36469 -156.96243 6023 ft 191 kts 289°
2026-04-28 09:37 61.36941 -156.98827 6032 ft 191 kts 289°
2026-04-28 09:37 61.37410 -157.01412 6019 ft 192 kts 289°
2026-04-28 09:37 61.37888 -157.04037 5987 ft 193 kts 289°
2026-04-28 09:38 61.38366 -157.06654 5986 ft 193 kts 289°
2026-04-28 09:38 61.38842 -157.09278 5987 ft 193 kts 289°
2026-04-28 09:38 61.39313 -157.11894 5989 ft 193 kts 289°
2026-04-28 09:38 61.39783 -157.14484 5989 ft 194 kts 289°
2026-04-28 09:39 61.40264 -157.17150 5990 ft 194 kts 289°
2026-04-28 09:39 61.40736 -157.19764 5988 ft 195 kts 289°
2026-04-28 09:39 61.41218 -157.22433 5992 ft 197 kts 289°
2026-04-28 09:39 61.41709 -157.25156 5991 ft 198 kts 289°
2026-04-28 09:40 61.42125 -157.27894 5984 ft 198 kts 281°
2026-04-28 09:40 61.42484 -157.30673 5988 ft 199 kts 284°
2026-04-28 09:40 61.42873 -157.33419 5987 ft 200 kts 284°
2026-04-28 09:40 61.43261 -157.36262 5986 ft 202 kts 284°
2026-04-28 09:41 61.43638 -157.39071 5987 ft 204 kts 284°
2026-04-28 09:41 61.44026 -157.41976 5989 ft 206 kts 284°
2026-04-28 09:41 61.44415 -157.44864 5989 ft 208 kts 284°
2026-04-28 09:41 61.44799 -157.47756 5988 ft 210 kts 284°
2026-04-28 09:42 61.45198 -157.50744 5987 ft 211 kts 284°
2026-04-28 09:42 61.45595 -157.53713 5987 ft 213 kts 284°
2026-04-28 09:42 61.45994 -157.56695 5990 ft 213 kts 284°
2026-04-28 09:42 61.46390 -157.59687 5981 ft 213 kts 284°
2026-04-28 09:43 61.46784 -157.62657 5984 ft 213 kts 284°
2026-04-28 09:43 61.47180 -157.65645 5986 ft 213 kts 284°
2026-04-28 09:43 61.47574 -157.68636 5983 ft 213 kts 284°
2026-04-28 09:43 61.47967 -157.71622 5986 ft 213 kts 284°
2026-04-28 09:44 61.48361 -157.74617 5989 ft 213 kts 284°
2026-04-28 09:44 61.48755 -157.77607 5975 ft 213 kts 284°
2026-04-28 09:44 61.49145 -157.80604 5977 ft 214 kts 283°
2026-04-28 09:44 61.49535 -157.83600 5977 ft 214 kts 284°
2026-04-28 09:45 61.49929 -157.86604 5977 ft 214 kts 284°
2026-04-28 09:45 61.50321 -157.89604 5977 ft 213 kts 284°
2026-04-28 09:45 61.50709 -157.92592 5974 ft 213 kts 284°
2026-04-28 09:45 61.51097 -157.95588 5973 ft 213 kts 284°
2026-04-28 09:46 61.51485 -157.98560 5971 ft 211 kts 284°
2026-04-28 09:46 61.51868 -158.01506 5973 ft 209 kts 284°
2026-04-28 09:46 61.52244 -158.04441 5966 ft 208 kts 284°
2026-04-28 09:46 61.52621 -158.07350 5970 ft 206 kts 284°
2026-04-28 09:47 61.52992 -158.10249 5970 ft 205 kts 283°
2026-04-28 09:47 61.53361 -158.13138 5960 ft 205 kts 284°
2026-04-28 09:47 61.53732 -158.16026 5967 ft 205 kts 284°
2026-04-28 09:47 61.54103 -158.18914 5967 ft 205 kts 283°
2026-04-28 09:48 61.54470 -158.21790 5959 ft 203 kts 283°
2026-04-28 09:48 61.54829 -158.24637 5956 ft 201 kts 283°
2026-04-28 09:48 61.55190 -158.27464 5955 ft 199 kts 283°
2026-04-28 09:48 61.55547 -158.30266 5947 ft 198 kts 283°
2026-04-28 09:49 61.55777 -158.32117 5937 ft 198 kts 283°
2026-04-28 09:49 61.56129 -158.34895 5941 ft 197 kts 283°
2026-04-28 09:49 61.56486 -158.37664 5945 ft 195 kts 284°
2026-04-28 09:49 61.57124 -158.40135 5926 ft 194 kts 311°
2026-04-28 09:50 61.58265 -158.41587 5934 ft 194 kts 343°
2026-04-28 09:50 61.59596 -158.41625 5927 ft 193 kts 14°
2026-04-28 09:50 61.60833 -158.40614 5952 ft 190 kts 23°
2026-04-28 09:50 61.62059 -158.39594 5952 ft 189 kts 19°
2026-04-28 09:51 61.63307 -158.38723 5952 ft 190 kts 18°
2026-04-28 09:51 61.64562 -158.37865 5953 ft 189 kts 18°
2026-04-28 09:51 61.65805 -158.37008 5944 ft 188 kts 18°
2026-04-28 09:51 61.67045 -158.36146 5942 ft 187 kts 18°
2026-04-28 09:52 61.68275 -158.35291 5946 ft 186 kts 18°
2026-04-28 09:52 61.69500 -158.34443 5947 ft 185 kts 18°
2026-04-28 09:52 61.70731 -158.33748 5940 ft 182 kts 11°
2026-04-28 09:52 61.71965 -158.33172 5944 ft 181 kts 14°
2026-04-28 09:53 61.73186 -158.32521 5947 ft 181 kts 13°
2026-04-28 09:53 61.74406 -158.31909 5943 ft 179 kts 13°
2026-04-28 09:53 61.75615 -158.31324 5944 ft 177 kts 13°
2026-04-28 09:53 61.76814 -158.30716 5943 ft 177 kts 12°
2026-04-28 09:54 61.78010 -158.30136 5942 ft 177 kts 13°
2026-04-28 09:54 61.79212 -158.29539 5941 ft 177 kts 13°
2026-04-28 09:54 61.80402 -158.28940 5948 ft 175 kts 13°
2026-04-28 09:54 61.81580 -158.28352 5950 ft 173 kts 13°
2026-04-28 09:55 61.82751 -158.27766 5951 ft 172 kts 13°
2026-04-28 09:55 61.83915 -158.27195 5946 ft 172 kts 13°
2026-04-28 09:55 61.85071 -158.26618 5959 ft 171 kts 13°
2026-04-28 09:55 61.86247 -158.26028 5981 ft 177 kts 13°
2026-04-28 09:56 61.87470 -158.25418 5983 ft 184 kts 13°
2026-04-28 09:56 61.88740 -158.24779 5982 ft 191 kts 13°
2026-04-28 09:56 61.90054 -158.24119 5978 ft 196 kts 13°
2026-04-28 09:56 61.91308 -158.22949 5964 ft 200 kts 35°
2026-04-28 09:57 61.92414 -158.21153 5972 ft 202 kts 37°
2026-04-28 09:57 61.93570 -158.19393 5972 ft 206 kts 34°
2026-04-28 09:57 61.94762 -158.17646 5981 ft 209 kts 34°
2026-04-28 09:57 61.95962 -158.15881 5981 ft 211 kts 35°
2026-04-28 09:58 61.97173 -158.14073 5981 ft 213 kts 35°
2026-04-28 09:58 61.98393 -158.12268 5982 ft 214 kts 35°
2026-04-28 09:58 61.99620 -158.10441 5982 ft 216 kts 35°
2026-04-28 09:58 62.00854 -158.08609 5980 ft 217 kts 35°
2026-04-28 09:59 62.02097 -158.06764 5979 ft 218 kts 35°
2026-04-28 09:59 62.03341 -158.04910 5978 ft 218 kts 35°
2026-04-28 09:59 62.04584 -158.03054 5981 ft 219 kts 35°
2026-04-28 09:59 62.05835 -158.01187 5979 ft 219 kts 35°
2026-04-28 10:00 62.07084 -157.99320 5979 ft 219 kts 35°
2026-04-28 10:00 62.08336 -157.97451 5980 ft 219 kts 35°
2026-04-28 10:00 62.09582 -157.95582 5980 ft 219 kts 35°
2026-04-28 10:00 62.10837 -157.93707 5974 ft 221 kts 35°
2026-04-28 10:01 62.12095 -157.91815 5977 ft 221 kts 35°
2026-04-28 10:01 62.13353 -157.89930 5976 ft 221 kts 35°
2026-04-28 10:01 62.14611 -157.88038 5978 ft 221 kts 35°
2026-04-28 10:01 62.15865 -157.86152 5977 ft 220 kts 35°
2026-04-28 10:02 62.17118 -157.84262 5976 ft 220 kts 35°
2026-04-28 10:02 62.18372 -157.82372 5976 ft 220 kts 35°
2026-04-28 10:02 62.19625 -157.80481 5977 ft 221 kts 35°
2026-04-28 10:02 62.20880 -157.78584 5976 ft 220 kts 35°
2026-04-28 10:03 62.22130 -157.76690 5976 ft 220 kts 36°
2026-04-28 10:03 62.23380 -157.74795 5975 ft 220 kts 35°
2026-04-28 10:03 62.24634 -157.72903 5975 ft 221 kts 35°
2026-04-28 10:03 62.25888 -157.70997 5976 ft 221 kts 36°
2026-04-28 10:04 62.27139 -157.69098 5976 ft 220 kts 36°
2026-04-28 10:04 62.28391 -157.67193 5977 ft 220 kts 35°
2026-04-28 10:04 62.29640 -157.65294 5975 ft 220 kts 36°
2026-04-28 10:04 62.30878 -157.63357 5974 ft 219 kts 40°
2026-04-28 10:05 62.31846 -157.60864 5981 ft 216 kts 57°
2026-04-28 10:05 62.32670 -157.58153 5979 ft 216 kts 57°
2026-04-28 10:05 62.33538 -157.55499 5982 ft 217 kts 54°
2026-04-28 10:05 62.34418 -157.52862 5984 ft 217 kts 55°
2026-04-28 10:06 62.35296 -157.50206 5987 ft 218 kts 55°
2026-04-28 10:06 62.36170 -157.47542 5989 ft 218 kts 55°
2026-04-28 10:06 62.37047 -157.44874 5984 ft 218 kts 55°
2026-04-28 10:06 62.37929 -157.42200 5986 ft 219 kts 55°
2026-04-28 10:07 62.38808 -157.39520 5987 ft 219 kts 55°
2026-04-28 10:07 62.39686 -157.36844 5987 ft 219 kts 55°
2026-04-28 10:07 62.40567 -157.34155 5985 ft 219 kts 55°
2026-04-28 10:07 62.41443 -157.31476 5986 ft 219 kts 55°
2026-04-28 10:08 62.42319 -157.28797 5985 ft 219 kts 55°
2026-04-28 10:08 62.43193 -157.26116 5986 ft 219 kts 56°
2026-04-28 10:08 62.44072 -157.23423 5990 ft 219 kts 55°
2026-04-28 10:08 62.44948 -157.20734 5988 ft 219 kts 56°
2026-04-28 10:09 62.45826 -157.18029 5990 ft 219 kts 55°
2026-04-28 10:09 62.46704 -157.15332 5990 ft 219 kts 55°
2026-04-28 10:09 62.47581 -157.12624 5985 ft 220 kts 56°
2026-04-28 10:09 62.48459 -157.09914 5986 ft 220 kts 55°
2026-04-28 10:10 62.49336 -157.07214 5987 ft 220 kts 56°
2026-04-28 10:10 62.50211 -157.04503 5988 ft 220 kts 56°
2026-04-28 10:10 62.51085 -157.01790 5988 ft 219 kts 56°
2026-04-28 10:10 62.51961 -156.99078 5987 ft 220 kts 56°
2026-04-28 10:11 62.52835 -156.96368 5985 ft 219 kts 56°
2026-04-28 10:11 62.53705 -156.93661 5987 ft 219 kts 56°
2026-04-28 10:11 62.54579 -156.90944 5985 ft 219 kts 56°
2026-04-28 10:11 62.55449 -156.88233 5986 ft 219 kts 56°
2026-04-28 10:12 62.56319 -156.85522 5987 ft 219 kts 56°
2026-04-28 10:12 62.57189 -156.82801 5986 ft 219 kts 56°
2026-04-28 10:12 62.58058 -156.80084 5987 ft 219 kts 56°
2026-04-28 10:12 62.58926 -156.77365 5987 ft 219 kts 56°
2026-04-28 10:13 62.59794 -156.74650 5987 ft 219 kts 56°
2026-04-28 10:13 62.60661 -156.71926 5987 ft 219 kts 56°
2026-04-28 10:13 62.61527 -156.69207 5986 ft 219 kts 56°
2026-04-28 10:13 62.62394 -156.66483 5987 ft 219 kts 56°
2026-04-28 10:14 62.63263 -156.63752 5987 ft 219 kts 56°
2026-04-28 10:14 62.64128 -156.61018 5987 ft 219 kts 56°
2026-04-28 10:14 62.64992 -156.58292 5988 ft 219 kts 56°
2026-04-28 10:14 62.65859 -156.55553 5988 ft 219 kts 56°
2026-04-28 10:15 62.66722 -156.52825 5988 ft 219 kts 56°
2026-04-28 10:15 62.67586 -156.50088 5988 ft 219 kts 56°
2026-04-28 10:15 62.68448 -156.47353 5988 ft 219 kts 56°
2026-04-28 10:15 62.69312 -156.44610 5989 ft 219 kts 56°
2026-04-28 10:16 62.70064 -156.42212 5988 ft 219 kts 56°
2026-04-28 10:16 62.70926 -156.39476 5988 ft 220 kts 56°
2026-04-28 10:16 62.71787 -156.36732 5989 ft 219 kts 56°
2026-04-28 10:16 62.72649 -156.33981 5990 ft 219 kts 56°
2026-04-28 10:17 62.73497 -156.31269 5990 ft 220 kts 56°
2026-04-28 10:17 62.74359 -156.28521 5988 ft 219 kts 56°
2026-04-28 10:17 62.75351 -156.26016 5982 ft 218 kts 43°
2026-04-28 10:17 62.76493 -156.23849 5986 ft 218 kts 41°
2026-04-28 10:18 62.77625 -156.21642 5987 ft 218 kts 43°
2026-04-28 10:18 62.78742 -156.19400 5990 ft 219 kts 43°
2026-04-28 10:18 62.79864 -156.17145 5992 ft 218 kts 43°
2026-04-28 10:18 62.80979 -156.14916 5984 ft 216 kts 43°
2026-04-28 10:19 62.82079 -156.12713 5984 ft 213 kts 43°
2026-04-28 10:19 62.83181 -156.10509 5845 ft 218 kts 43°
2026-04-28 10:19 62.84307 -156.08246 5664 ft 221 kts 43°
2026-04-28 10:19 62.85440 -156.05962 5489 ft 222 kts 43°
2026-04-28 10:20 62.86582 -156.03671 5314 ft 223 kts 43°
2026-04-28 10:20 62.87725 -156.01379 5149 ft 223 kts 42°
2026-04-28 10:20 62.88861 -155.99095 4967 ft 221 kts 43°
2026-04-28 10:20 62.89947 -155.96708 4748 ft 218 kts 53°
2026-04-28 10:21 62.90447 -155.93651 4455 ft 219 kts 87°
2026-04-28 10:21 62.90099 -155.90415 4162 ft 217 kts 117°
2026-04-28 10:21 62.89032 -155.88027 3597 ft 228 kts 149°
2026-04-28 10:21 62.87534 -155.87118 3267 ft 227 kts 179°
2026-04-28 10:22 62.86008 -155.87550 3155 ft 215 kts 188°
2026-04-28 10:22 62.84518 -155.87892 3035 ft 210 kts 181°
2026-04-28 10:22 62.83071 -155.87896 2800 ft 210 kts 178°
2026-04-28 10:22 62.81654 -155.87719 2792 ft 200 kts 173°
2026-04-28 10:23 62.80279 -155.87246 2635 ft 200 kts 169°
2026-04-28 10:23 62.78940 -155.86609 2590 ft 194 kts 163°
2026-04-28 10:23 62.77672 -155.85772 2584 ft 180 kts 173°
2026-04-28 10:23 62.76565 -155.86403 2672 ft 165 kts 214°
2026-04-28 10:24 62.75923 -155.88514 2333 ft 176 kts 255°
2026-04-28 10:24 62.76018 -155.91108 2205 ft 172 kts 287°
2026-04-28 10:24 62.76353 -155.93577 2170 ft 165 kts 283°
2026-04-28 10:24 62.76904 -155.95646 2138 ft 160 kts 307°
2026-04-28 10:25 62.77700 -155.97303 2123 ft 153 kts 323°
2026-04-28 10:25 62.78588 -155.98488 2148 ft 147 kts 330°
2026-04-28 10:25 62.79483 -155.99520 2160 ft 142 kts 334°
2026-04-28 10:25 62.80429 -155.99950 2166 ft 142 kts
2026-04-28 10:26 62.81439 -155.99919 2159 ft 144 kts
2026-04-28 10:26 62.82449 -155.99811 2154 ft 145 kts
2026-04-28 10:26 62.83435 -155.99293 2136 ft 149 kts 17°
2026-04-28 10:26 62.84425 -155.98621 2163 ft 146 kts 12°
2026-04-28 10:27 62.85391 -155.98262 2137 ft 134 kts
2026-04-28 10:27 62.86325 -155.98069 1859 ft 134 kts
2026-04-28 10:27 62.87245 -155.98011 1568 ft 130 kts
2026-04-28 10:27 62.87821 -155.97933 1373 ft 125 kts
2026-04-28 10:28 62.88689 -155.97868 1032 ft 121 kts
2026-04-28 10:28 62.89686 -155.97840 861 ft 91 kts 360°
2026-04-28 10:28 62.89998 -155.97796 867 ft 37 kts
2026-04-28 10:29 62.90014 -155.97794 857 ft 2 kts 10°
2026-04-28 10:29 62.89999 -155.97800 855 ft 2 kts 13°
2026-04-28 10:29 62.89998 -155.97806 866 ft 2 kts 327°
2026-04-28 10:29 62.89994 -155.97832 853 ft 2 kts 183°
2026-04-28 10:30 62.89950 -155.97797 867 ft 14 kts 173°
2026-04-28 10:30 62.89804 -155.97779 853 ft 29 kts 180°
2026-04-28 10:30 62.89567 -155.97790 856 ft 38 kts 180°
2026-04-28 10:30 62.89293 -155.97804 863 ft 38 kts 182°
2026-04-28 10:31 62.89074 -155.97823 857 ft 20 kts 182°
2026-04-28 10:31 62.89032 -155.97759 853 ft 0 kts 183°
2026-04-28 10:31 62.89031 -155.97759 865 ft 0 kts 183°